Wind_Speed
72 69 69 70 69 69 71 72 76 72 77 73 73 67 65 66 67 67 69 69 69 71 70 70 72 74 76 77 77 77 80 87 88 88 89 91 97 97
71 71 69 71 71 74 72 74 76 75 77 75 71 73 68 69 71 68 71 72 73 73 74 73 75 78 81 82 80 84 84 91 90 92 92 95 101 97
74 74 75 70 69 73 75 78 77 71 74 75 72 72 72 69 71 69 71 72 74 74 76 77 79 82 83 85 85 87 94 96 95 95 95 100 103 104
78 77 75 75 72 70 70 70 74 74 76 72 72 73 72 75 75 76 75 76 76 75 78 80 81 85 84 88 89 90 99 99 98 98 101 105 105 107
78 80 76 75 72 74 72 77 76 75 74 70 73 74 78 80 80 76 76 76 78 79 82 84 84 85 89 91 94 96 99 103 100 101 106 106 107 107
83 82 81 80 78 79 76 75 77 80 75 76 75 79 80 82 81 80 80 81 79 82 83 84 87 86 90 96 98 103 105 106 103 103 110 107 111 109
83 81 80 74 76 76 76 79 79 80 83 83 85 83 86 86 85 81 84 83 84 85 84 85 86 89 95 101 106 108 107 108 107 110 110 110 116 109
86 86 86 84 87 82 80 84 87 90 88 87 88 83 87 84 84 86 87 83 87 89 81 90 85 93 99 109 114 115 114 111 112 113 111 114 118 108
88 89 88 83 86 84 82 83 84 80 81 81 82 86 83 84 86 81 81 85 91 90 86 87 94 99 105 111 117 115 115 113 113 110 109 120 117 104
91 91 91 87 92 94 90 88 87 87 82 80 76 79 85 80 84 84 88 93 92 89 89 88 100 105 107 113 115 114 117 111 112 112 119 123 112 105
93 97 97 98 97 94 94 96 96 93 86 83 90 84 84 87 86 88 91 89 95 93 95 97 104 103 109 112 116 117 115 110 115 118 121 122 105 103
104 104 100 100 99 99 92 88 85 87 91 85 84 86 89 90 90 90 91 93 98 100 102 104 109 111 106 111 114 119 107 110 118 118 120 104 107 108
105 102 104 109 105 103 101 96 103 98 94 90 95 96 97 99 93 96 102 103 105 111 111 111 110 113 114 112 110 109 108 115 115 108 96 101 110 115
113 116 117 113 112 111 109 108 102 99 99 101 104 105 109 98 100 103 103 106 110 111 112 112 112 112 111 113 105 110 115 113 100 95 97 103 113 116
112 115 114 115 117 117 113 110 113 111 111 113 115 113 109 107 107 112 104 106 109 110 112 112 113 113 110 104 108 107 97 87 94 95 99 105 114 118
116 117 118 116 113 117 122 118 114 117 116 114 113 111 113 106 111 108 108 107 113 112 112 112 111 105 108 112 105 97 87 90 92 98 102 109 118 122
112 113 116 119 119 117 115 116 119 123 123 120 114 110 108 113 114 107 110 112 112 112 109 110 105 110 107 102 87 88 92 94 99 102 105 114 123 124
114 118 119 122 124 120 117 116 116 118 116 112 114 118 117 121 114 111 109 108 110 105 108 107 103 99 88 88 92 91 96 98 104 109 112 117 122 127
104 115 114 119 124 121 123 125 124 124 125 120 119 120 122 119 105 109 109 110 109 110 107 102 88 83 84 90 98 99 98 105 109 113 115 120 120 114
117 112 112 103 102 107 116 127 132 128 118 113 110 109 106 107 108 108 111 108 109 106 97 87 84 85 88 92 96 104 106 109 112 114 117 120 111 105
119 120 120 115 107 100 94 95 100 102 103 104 104 104 108 108 111 110 109 103 96 93 90 87 90 91 93 97 101 106 112 116 115 118 117 108 100 89
120 120 117 113 112 110 109 107 106 100 97 97 97 98 98 98 96 94 92 90 90 92 93 94 96 98 100 102 106 108 113 119 124 123 113 104 89 68
125 123 121 119 116 113 111 110 107 106 104 102 101 102 101 98 97 96 95 94 96 97 98 100 102 104 107 108 112 114 117 117 115 111 113 97 86 70
Wind_Direction
250 249 250 250 251 253 256 256 259 260 269 268 271 275 280 285 288 293 294 297 300 304 305 305 304 308 308 310 309 314 315 316 321 321 319 317 316 317
247 247 249 252 255 258 260 260 263 268 270 275 271 274 279 283 288 290 292 297 298 301 302 302 301 305 305 308 308 312 314 317 320 321 319 316 317 318
247 252 252 254 257 264 262 262 265 266 272 274 269 272 278 282 287 288 290 295 297 298 301 300 302 304 305 306 307 311 315 318 321 320 317 315 318 317
250 251 254 259 261 260 260 259 263 265 271 268 269 272 276 279 282 284 288 292 295 296 299 301 300 303 305 305 308 309 315 317 319 317 316 315 316 317
248 251 251 256 256 257 261 262 266 269 266 269 273 276 280 278 279 285 288 292 294 296 300 299 302 302 302 305 310 311 313 317 317 315 316 315 313 316
248 251 253 256 259 261 261 266 265 265 263 271 281 281 278 278 279 284 288 291 294 297 301 298 299 300 301 305 310 313 315 317 314 313 316 315 314 317
248 250 254 256 260 261 260 262 262 261 266 274 281 279 279 277 280 286 287 292 296 299 294 294 295 299 305 307 311 314 314 315 315 314 316 315 317 318
249 250 252 253 258 260 260 265 268 262 271 274 276 277 278 282 284 286 291 294 292 294 293 295 294 299 306 308 313 314 315 314 314 314 314 315 318 316
249 250 253 250 255 257 261 265 268 270 273 273 277 279 283 284 287 290 289 290 291 291 293 292 301 306 308 311 311 314 313 313 314 314 314 316 317 317
249 251 253 255 257 260 264 267 267 275 274 278 281 282 286 288 286 286 287 289 289 288 291 292 301 306 308 309 310 311 313 311 313 312 315 317 317 317
249 252 254 257 259 263 264 266 270 276 275 277 277 279 283 284 286 285 287 286 287 289 292 294 300 303 304 308 308 310 311 310 313 314 316 316 315 317
253 252 254 258 262 265 266 266 267 266 273 275 277 279 285 287 283 283 284 286 286 289 293 298 300 301 304 308 307 309 313 311 312 314 314 313 314 316
253 256 257 257 260 262 267 266 268 272 272 271 270 279 283 284 284 285 287 288 289 289 293 297 298 300 304 304 304 308 310 310 312 310 311 314 313 315
258 258 258 260 262 263 265 268 271 269 271 272 277 276 282 282 283 286 288 288 290 292 293 295 298 301 303 306 305 308 311 310 309 310 313 314 313 316
257 259 262 263 267 268 269 269 269 269 272 274 275 279 280 278 285 287 290 289 290 292 293 297 299 304 307 305 307 307 309 306 308 310 313 314 314 317
255 260 260 263 266 267 268 269 271 271 272 276 278 278 281 282 285 287 291 291 293 295 296 299 303 303 301 306 306 308 306 307 310 312 314 314 315 318
257 261 262 260 264 265 266 267 269 271 271 275 277 280 280 280 287 288 289 291 293 296 298 300 299 301 303 304 304 305 306 311 312 313 315 315 316 320
258 260 260 261 264 265 266 269 270 273 274 275 278 279 281 282 284 290 293 293 294 298 297 300 302 303 303 303 302 305 309 311 312 314 317 317 318 319
260 262 266 268 267 266 269 271 269 271 274 278 279 283 286 286 285 290 289 294 293 296 298 300 299 300 301 303 305 308 310 310 313 313 316 316 318 318
255 259 262 264 266 268 270 268 269 272 274 275 276 279 279 282 284 288 289 291 293 294 295 296 297 297 300 303 305 306 308 310 312 312 314 315 317 319
255 258 260 262 263 265 267 270 271 272 273 275 276 278 280 282 284 285 287 289 289 292 294 295 297 299 301 303 304 305 307 309 311 312 313 314 318 319
257 259 261 262 262 263 266 269 270 272 274 275 276 279 281 281 282 284 286 287 290 292 293 295 298 299 300 301 302 304 305 307 309 311 313 317 319 321
257 259 261 261 263 264 264 266 268 269 272 274 276 278 279 281 282 283 285 287 288 291 293 295 296 297 298 300 300 302 304 306 309 309 313 317 319 325
Height
10721 10725 10729 10731 10736 10740 10743 10744 10744 10746 10747 10746 10746 10746 10743 10741 10738 10736 10731 10727 10722 10717 10711 10707 10702 10694 10687 10679 10672 10667 10658 10651 10642 10632 10621 10610 10598 10586
10707 10711 10714 10717 10722 10726 10731 10733 10733 10734 10736 10736 10735 10734 10732 10730 10727 10725 10719 10714 10710 10705 10699 10694 10687 10680 10672 10664 10657 10651 10642 10634 10625 10614 10603 10592 10578 10565
10693 10696 10699 10704 10709 10713 10718 10718 10721 10723 10724 10723 10721 10720 10719 10718 10715 10711 10706 10701 10697 10692 10686 10679 10672 10665 10657 10648 10641 10634 10625 10616 10607 10596 10584 10573 10558 10546
10677 10680 10685 10691 10696 10700 10704 10705 10708 10709 10710 10708 10706 10706 10706 10704 10703 10699 10693 10687 10682 10679 10673 10665 10658 10650 10640 10630 10625 10617 10607 10598 10588 10576 10565 10553 10538 10526
10661 10665 10671 10677 10682 10685 10689 10693 10693 10694 10695 10693 10692 10691 10691 10689 10687 10682 10678 10672 10668 10664 10660 10650 10644 10633 10623 10613 10606 10599 10591 10582 10570 10558 10547 10533 10518 10504
10645 10652 10659 10662 10666 10670 10673 10675 10677 10678 10678 10677 10676 10675 10675 10673 10672 10667 10661 10658 10654 10650 10644 10635 10628 10616 10607 10596 10589 10581 10571 10562 10551 10538 10526 10511 10495 10481
10634 10639 10645 10645 10650 10652 10656 10658 10660 10662 10662 10661 10660 10659 10658 10658 10655 10650 10645 10642 10638 10634 10627 10617 10610 10599 10586 10573 10566 10558 10548 10539 10529 10515 10501 10485 10470 10456
10619 10623 10627 10631 10634 10635 10638 10641 10642 10646 10646 10644 10643 10643 10642 10640 10637 10635 10632 10625 10621 10616 10611 10591 10596 10579 10568 10551 10539 10530 10521 10513 10503 10491 10477 10460 10445 10432
10601 10605 10610 10612 10616 10618 10620 10623 10624 10625 10626 10623 10625 10624 10624 10621 10623 10618 10615 10610 10603 10599 10599 10583 10566 10559 10549 10530 10517 10507 10500 10491 10480 10468 10455 10438 10422 10407
10585 10589 10592 10595 10597 10601 10604 10606 10606 10609 10607 10607 10607 10607 10607 10604 10602 10600 10598 10594 10587 10580 10578 10576 10555 10548 10534 10515 10497 10489 10480 10469 10457 10444 10430 10411 10396 10384
10568 10571 10575 10576 10578 10583 10587 10589 10589 10590 10590 10590 10591 10590 10589 10587 10583 10580 10578 10575 10569 10562 10557 10555 10544 10541 10526 10507 10480 10470 10463 10449 10433 10419 10405 10388 10375 10366
10549 10552 10555 10557 10561 10565 10568 10571 10570 10569 10572 10573 10572 10570 10570 10569 10565 10562 10559 10556 10550 10542 10536 10534 10522 10518 10516 10501 10472 10455 10447 10432 10419 10404 10393 10370 10353 10348
10525 10528 10532 10536 10543 10546 10550 10550 10550 10552 10553 10552 10552 10553 10550 10548 10546 10543 10539 10535 10527 10519 10519 10515 10505 10495 10486 10484 10468 10444 10436 10421 10407 10390 10377 10362 10337 10322
10500 10506 10511 10516 10522 10526 10528 10528 10531 10529 10532 10532 10533 10531 10531 10528 10525 10522 10516 10511 10503 10499 10493 10493 10485 10474 10465 10460 10447 10429 10417 10400 10388 10376 10364 10348 10320 10306
10482 10487 10490 10495 10498 10502 10504 10503 10509 10507 10511 10512 10512 10512 10509 10505 10504 10500 10493 10488 10483 10476 10472 10467 10462 10453 10441 10431 10427 10413 10405 10389 10373 10361 10349 10331 10305 10290
10462 10466 10471 10475 10478 10478 10481 10482 10484 10486 10489 10488 10487 10487 10486 10485 10480 10475 10472 10466 10459 10454 10448 10446 10437 10427 10416 10404 10397 10394 10379 10372 10362 10344 10334 10312 10286 10265
10441 10445 10448 10453 10457 10458 10458 10460 10462 10465 10467 10467 10465 10464 10462 10459 10460 10451 10450 10448 10438 10430 10425 10423 10416 10407 10397 10386 10376 10371 10362 10351 10335 10325 10315 10293 10266 10242
10421 10425 10428 10430 10430 10433 10435 10438 10440 10442 10443 10440 10442 10442 10440 10438 10433 10431 10426 10421 10414 10408 10402 10397 10392 10384 10375 10362 10353 10356 10338 10329 10315 10300 10287 10272 10256 10226
10400 10402 10401 10400 10405 10410 10414 10416 10417 10419 10419 10418 10420 10416 10414 10414 10409 10405 10405 10400 10392 10386 10381 10380 10370 10366 10359 10348 10328 10319 10320 10303 10295 10280 10269 10251 10241 10224
10375 10376 10379 10383 10384 10386 10388 10393 10397 10398 10397 10396 10395 10394 10393 10391 10387 10386 10382 10376 10371 10366 10361 10359 10354 10348 10343 10333 10322 10302 10293 10286 10275 10266 10256 10243 10224 10204
10346 10352 10358 10362 10366 10368 10369 10370 10372 10372 10373 10372 10372 10370 10368 10367 10367 10364 10362 10358 10351 10346 10341 10338 10333 10329 10323 10313 10304 10289 10271 10259 10248 10240 10235 10228 10217 10199
10319 10326 10332 10337 10343 10345 10346 10348 10350 10351 10350 10350 10349 10348 10347 10346 10344 10343 10341 10338 10333 10328 10322 10317 10312 10307 10301 10294 10284 10274 10260 10243 10225 10205 10199 10196 10192 10190
10295 10302 10307 10311 10315 10319 10322 10324 10326 10327 10328 10327 10327 10326 10324 10325 10323 10322 10320 10317 10312 10309 10305 10300 10294 10287 10280 10274 10263 10255 10245 10230 10217 10201 10175 10172 10163 10159